Location: Asheville, NC
(35.6000°N, 82.5500°W)
Time: 06:07:34
(UTC-04:00)

Vanguard 1 - Pass Details

Date: 10 February 2018
Orbit: 650 x 3832 km, 34.2° (Epoch: 19 May)

Event Time Altitude Azimuth Distance (km) Brightness Sun altitude
Rises 00:16:13 0° 271° (W) 3,101 - -67.8°
Reaches altitude 10° 00:18:39 10° 257° (WSW) 2,341 - -68.0°
Maximum altitude 00:23:00 25° 202° (SSW) 1,866 - -68.2°
Drops below altitude 10° 00:29:14 10° 150° (SSE) 3,446 - -68.5°
Sets 00:33:45 0° 139° (SE) 4,978 - -68.6°
